Regional Weather Roundup
Issued by NWS Boston, MA

Current Version | Previous Version | Text Only | Print | Product List | Glossary Off
Versions: 1 2 3 4 5 6 7 8 9 10 11 12 13 14 15 16 17 18 19 20 21 22 23 24 25 26 27
000 ASUS41 KBOX 262210 RWRBOX REGIONAL WEATHER ROUNDUP NATIONAL WEATHER SERVICE TAUNTON MA 600 PM EDT SUN MAR 26 2017 NOTE: "FAIR" INDICATES FEW OR NO CLOUDS BELOW 12,000 FEET WITH NO SIGNIFICANT WEATHER AND/OR OBSTRUCTIONS TO VISIBILITY. MAZALL-262300- EASTERN MASSACHUSETTS CITY SKY/WX TMP DP RH WIND PRES REMARKS BOSTON CLOUDY 37 29 72 E12 30.48F WCI 29 BEVERLY CLOUDY 36 26 67 SE10 30.48F WCI 28 LAWRENCE CLOUDY 34 25 69 SE3 30.50F BEDFORD CLOUDY 36 24 62 E10 30.46F WCI 28 BLUE HILL N/A 35 25 66 E8 30.43F WCI 29 NORWOOD CLOUDY 39 27 62 E8 30.47F MARSHFIELD CLOUDY 39 28 65 SE10 30.48F PLYMOUTH CLOUDY 38 26 62 E10 30.47F WCI 31 TAUNTON CLOUDY 39 27 62 E9 30.46F NEW BEDFORD CLOUDY 40 27 59 E9 30.46F $$ MAZALL-262300- CAPE COD AND THE ISLANDS CITY SKY/WX TMP DP RH WIND PRES REMARKS FALMOUTH CLOUDY 37 28 70 MISG 30.48F HYANNIS CLOUDY 39 28 64 E7 30.46F CHATHAM CLOUDY 39 28 64 SE8 30.49F PROVINCETOWN CLOUDY 38 26 62 SE9 30.49F WCI 31 NANTUCKET CLOUDY 38 27 64 E10 30.46F WCI 31 MARTHAS VNYRD CLOUDY 40 29 64 E10 30.45F $$ MAZALL-262300- CENTRAL AND WESTERN MASSACHUSETTS CITY SKY/WX TMP DP RH WIND PRES REMARKS WORCESTER CLOUDY 35 24 64 E6 30.41S WCI 30 FITCHBURG CLOUDY 37 25 61 SE6 30.46F ORANGE CLOUDY 37 27 67 E8 30.41F WCI 31 SPRINGFIELD CLOUDY 42 27 55 SE5 30.40F WESTFIELD LGT RAIN 39 30 70 N3 30.41F NORTH ADAMS CLOUDY 37 25 61 E12 30.38F WCI 29 PITTSFIELD LGT RAIN 33 28 81 E5 30.35F WCI 29 $$ RIZALL-262300- RHODE ISLAND CITY SKY/WX TMP DP RH WIND PRES REMARKS PROVIDENCE CLOUDY 40 26 57 E10 30.46F NEWPORT CLOUDY 39 29 67 E9 30.45F BLOCK ISLAND LGT RAIN 37 33 85 E14G21 30.44S WCI 28 SMITHFIELD CLOUDY 39 28 64 CALM 30.45S WESTERLY CLOUDY 40 30 67 E16 30.45F WCI 31 $$ CTZALL-262300- CONNECTICUT CITY SKY/WX TMP DP RH WIND PRES REMARKS BRADLEY INTL LGT RAIN 40 32 73 CALM 30.42F HARTFORD LGT RAIN 40 34 79 CALM 30.42F BRIDGEPORT CLOUDY 40 35 83 E14 30.42S DANBURY CLOUDY 38 32 79 E8 30.40F GROTON LGT RAIN 39 30 70 E14 30.43F WCI 31 NEW HAVEN CLOUDY 39 33 79 E13 30.42F WCI 31 CHESTER NOT AVBL MERIDEN CLOUDY 40 33 76 CALM 30.42F WILLIMANTIC CLOUDY 43 29 57 E8 30.44S OXFORD CLOUDY 37 30 75 SE9 30.40F WCI 31 $$ MEZ002-015-021-024-NHZ003-005-008-011-012-014-VTZ005-008-262300- NORTHERN NEW ENGLAND CITY SKY/WX TMP DP RH WIND PRES REMARKS PORTLAND ME CLOUDY 34 19 54 S7 30.51S WCI 28 BANGOR ME PTCLDY 38 1 21 CALM 30.46S CONCORD NH CLOUDY 35 23 61 VRB7 30.47S WCI 29 MANCHESTER NH NOT AVBL NASHUA NH NOT AVBL PORTSMOUTH NH CLOUDY 35 24 64 SE9 30.48F WCI 28 JAFFREY NH NOT AVBL KEENE NH CLOUDY 38 25 59 VRB3 30.43F BURLINGTON VT LGT RAIN 36 28 73 S10 30.35F WCI 28 MT. WASHINGTON LGTSLEET 27 1 33 W21 N/A WCI 13 $$ NYZ052-076-262300- EASTERN NEW YORK CITY SKY/WX TMP DP RH WIND PRES REMARKS ALBANY CLOUDY 37 30 75 SE7 30.38F FOG WCI 32 NEW YORK CITY CLOUDY 43 35 73 NE12 30.39F $$ ANZALL-262300- MARINE OBSERVATIONS STATION/POSITION TIME TEMP WIND PRES VSBY WAVE AIR SEA DIR/SP/G HT/PER (UTC) (F) (DEG/KT/KT) (MB) (MI) (FT/S) BOSTON BUOY 2150 37 40 110/ 12/ 14 1032.2F 3/ 5 BUZZARDS BAY 2200 38 90/ 15/ 16 1031.3F NANTUCKET SOUND 2150 38 1031.7F 1/ 3 MASS BAY-STELLWA 2104 36 39 120/ 10/ 12 1031.9F 4/ 6 ISLE OF SHOALS 2200 35 140/ 10/ 12 1032.7F S OF BLOCK IS 2125 40 N/A 4/ 5 $$ ......................KEY......................... SKY/WX - SKY CONDITION/PRESENT WEATHER TMP - TEMPERATURE IN FAHRENHEIT DWPT - DEWPOINT IN FAHRENHEIT RH - RELATIVE HUMIDITY IN PERCENT WIND - DIRECTION AND SPEED IN MPH PRES - MEAN SEA LEVEL PRESSURE IN INCHES OF HG WCI - WIND CHILL INDEX VSB - VISIBILITY IN MILES HX - HEAT INDEX TC - TEMPERATURE IN CELSIUS VRB - VARIABLE WIND DIRECTION N/A - NOT AVAILABLE

USA.gov is the U.S. government's official web portal to all federal, state and local government web resources and services.